Location: ??
(34.7252°N, 135.5457°E)
Time: 08:46:23
(UTC+00:00)

Cosmos 2360 Rocket - Pass Details

Date: 24 September 2020
Orbit: 835 x 844 km, 71.0° (Epoch: 29 October)

Event Time Altitude Azimuth Distance (km) Brightness Sun altitude
Exits shadow 19:45:54 19° 254° (WSW) 1,909 3.4 -13.5°
Maximum altitude 19:48:49 29° 299° (WNW) 1,505 3.1 -13.0°
Drops below altitude 10° 19:53:41 10° 359° (N) 2,466 4.7 -12.0°
Sets 19:56:28 0° 10° (N) 3,403 5.6 -11.4°
